This is the latest recevied weather packets stored in our database for station/object NK7I. If no packets are shown the sender has not sent any weather packets the latest 10 day(s).
| Time | Temp. | Humidity | Pressure | Rain* | Wind** | Luminosity | Snow |
|---|---|---|---|---|---|---|---|
| 1778003483 | 18.33° C | 35% | 1013.6 hPa | 0 mm | - | 1164 W/m² | - |
| 1778003183 | 18.33° C | 37% | 1013.7 hPa | 0 mm | - | 1153 W/m² | - |
| 1778002883 | 18.33° C | 38% | 1013.9 hPa | 0 mm | - | 1139 W/m² | - |
| 1778002583 | 17.78° C | 40% | 1013.9 hPa | 0 mm | - | 1125 W/m² | - |
| 1778002284 | 17.22° C | 38% | 1014 hPa | 0 mm | - | 1116 W/m² | - |
| 1778001983 | 17.22° C | 41% | 1014.1 hPa | 0 mm | - | 1097 W/m² | - |
| 1778001683 | 16.67° C | 40% | 1014.1 hPa | 0 mm | - | 1088 W/m² | - |
| 1778001383 | 16.67° C | 40% | 1014.2 hPa | 0 mm | - | 1076 W/m² | - |
| 1778001083 | 16.67° C | 41% | 1014.2 hPa | 0 mm | - | 1058 W/m² | - |
| 1778000783 | 16.67° C | 42% | 1014.2 hPa | 0 mm | - | 1044 W/m² | - |
| 1778000483 | 16.67° C | 48% | 1014.2 hPa | 0 mm | - | 1025 W/m² | - |
| 1778000183 | 16.67° C | 41% | 1014.3 hPa | 0 mm | - | 1011 W/m² | - |
| 1777999883 | 16.11° C | 42% | 1014.3 hPa | 0 mm | - | 990 W/m² | - |
| 1777999583 | 16.11° C | 43% | 1014.3 hPa | 0 mm | - | 974 W/m² | - |
| 1777999284 | 16.11° C | 46% | 1014.3 hPa | 0 mm | - | 958 W/m² | - |
| 1777998983 | 15.56° C | 45% | 1014.4 hPa | 0 mm | - | 942 W/m² | - |
| 1777998683 | 15.56° C | 48% | 1014.5 hPa | 0 mm | - | 925 W/m² | - |
| 1777998383 | 15.56° C | 50% | 1014.5 hPa | 0 mm | - | 905 W/m² | - |
| 1777998083 | 15.56° C | 49% | 1014.5 hPa | 0 mm | - | 861 W/m² | - |
| 1777997784 | 15° C | 51% | 1014.5 hPa | 0 mm | - | 761 W/m² | - |
| 1777997483 | 15° C | 46% | 1014.5 hPa | 0 mm | - | 628 W/m² | - |
| 1777997183 | 14.44° C | 45% | 1014.6 hPa | 0 mm | - | 543 W/m² | - |
| 1777996883 | 14.44° C | 50% | 1014.7 hPa | 0 mm | - | 519 W/m² | - |
| 1777996583 | 14.44° C | 54% | 1014.7 hPa | 0 mm | - | 543 W/m² | - |
| 1777996283 | 13.89° C | 54% | 1014.8 hPa | 0 mm | - | 577 W/m² | - |
* Rain latest hour (hover to see other rain measurements)
** Current wind speed in m/s (hover to see current wind gust speed)